North Las Vegas, NV

8:02 AM PDT on August 18, 2017 (GMT -0700)
North Las Vegas

Weather History for KVGT - December, 2014

Change the Weather History Date:

Tuesday, December 30, 2014

  Actual Average Record
Temperature  
Mean Temperature 38 °F 46 °F  
Max Temperature 45 °F 55 °F 64 °F (2011)
Min Temperature 30 °F 37 °F 27 °F (2015)
Degree Days  
Heating Degree Days 28 19  
Month to date heating degree days 543  
Since 1 July heating degree days 856  
Cooling Degree Days 0 0  
Month to date cooling degree days 0  
Year to date cooling degree days 3294  
Moisture  
Dew Point 10 °F    
Average Humidity 32    
Maximum Humidity 50    
Minimum Humidity 22    
Precipitation  
Precipitation 0.00 in 0.04 in 0.26 in (2003)
Month to date precipitation 0.54  
Year to date precipitation 5.34  
Sea Level Pressure  
Sea Level Pressure 30.09 in    
Wind  
Wind Speed 10 mph (North)    
Max Wind Speed 23 mph    
Max Gust Speed 31 mph    
Visibility 10 miles    
Events      
T = Trace of Precipitation, MM = Missing Value Source: NWS Daily Summary

Daily Weather History Graph

Daily Weather History Graph

Search for Another Location

Airport or City:

Trip Planner

Search our weather history database for the weather conditions in past years. The results will help you decide how hot, cold, wet, or windy it might be!

Date:

Astronomy

Dec. 30, 2014 Rise Set
Actual Time 6:51 AM PST 4:35 PM PST
Civil Twilight 6:22 AM PST 5:04 PM PST
Nautical Twilight 5:50 AM PST 5:36 PM PST
Astronomical Twilight 5:19 AM PST 6:07 PM PST
Moon 12:44 PM PST (12/30) 1:24 AM PST (12/30)
Length of Visible Light 10h 41m
Length of Day
9h 43m
Waxing Gibbous, 72% of the Moon is Illuminated
Dec 30
Waxing Gibbous
Jan 4
Full
Jan 13
Last Quarter
Jan 20
New
Jan 26
First Quarter

Hourly Weather History & Observations

Time (PST) Temp. Windchill Dew Point Humidity Pressure Visibility Wind Dir Wind Speed Gust Speed Precip Events Conditions
12:53 AM 34.0 °F 29.8 °F 15.1 °F 46% 30.01 in 10.0 mi NW 4.6 mph - N/A   Clear
1:53 AM 34.0 °F 31.0 °F 15.1 °F 46% 30.01 in 10.0 mi West 3.5 mph - N/A   Clear
2:53 AM 30.9 °F - 14.0 °F 50% 30.02 in 10.0 mi Calm Calm - N/A   Clear
3:53 AM 30.9 °F 25.2 °F 14.0 °F 50% 30.02 in 10.0 mi East 5.8 mph - N/A   Clear
4:53 AM 33.1 °F 24.9 °F 12.9 °F 43% 30.03 in 10.0 mi NNW 10.4 mph - N/A   Clear
5:53 AM 34.0 °F 26.6 °F 12.0 °F 40% 30.04 in 10.0 mi North 9.2 mph - N/A   Clear
6:53 AM 33.1 °F 26.1 °F 12.9 °F 43% 30.07 in 10.0 mi North 8.1 mph - N/A   Clear
7:53 AM 37.0 °F 28.9 °F 12.9 °F 37% 30.10 in 10.0 mi North 12.7 mph - N/A   Clear
8:53 AM 42.1 °F 34.5 °F 14.0 °F 32% 30.11 in 10.0 mi North 15.0 mph 19.6 mph N/A   Clear
9:53 AM 44.1 °F 36.8 °F 14.0 °F 30% 30.11 in 10.0 mi NNW 16.1 mph - N/A   Overcast
10:53 AM 45.0 °F 37.4 °F 14.0 °F 29% 30.10 in 10.0 mi North 18.4 mph 21.9 mph N/A   Overcast
11:53 AM 45.0 °F 37.6 °F 14.0 °F 29% 30.08 in 10.0 mi NNW 17.3 mph 24.2 mph N/A   Mostly Cloudy
12:53 PM 45.0 °F 37.9 °F 14.0 °F 29% 30.07 in 10.0 mi NNW 16.1 mph - N/A   Overcast
1:53 PM 44.1 °F 36.8 °F 14.0 °F 30% 30.08 in 10.0 mi NNW 16.1 mph - N/A   Mostly Cloudy
2:53 PM 45.0 °F 36.9 °F 10.0 °F 24% 30.09 in 10.0 mi NNW 20.7 mph 24.2 mph N/A   Overcast
3:53 PM 44.1 °F 36.5 °F 8.1 °F 23% 30.10 in 10.0 mi East 17.3 mph - N/A   Overcast
4:53 PM 43.0 °F 35.1 °F 6.1 °F 22% 30.11 in 10.0 mi NE 17.3 mph 26.5 mph N/A   Overcast
5:53 PM 39.9 °F 30.0 °F 3.9 °F 22% 30.11 in 10.0 mi NE 21.9 mph 28.8 mph N/A   Scattered Clouds
6:53 PM 39.0 °F 34.0 °F 3.9 °F 23% 30.15 in 10.0 mi ENE 6.9 mph - N/A   Clear
7:53 PM 37.9 °F 32.7 °F 1.9 °F 22% 30.18 in 10.0 mi North 6.9 mph - N/A   Clear
8:53 PM 36.0 °F 26.7 °F 1.0 °F 23% 30.18 in 10.0 mi NNW 15.0 mph 26.5 mph N/A   Partly Cloudy
9:53 PM 35.1 °F 24.5 °F 1.0 °F 24% 30.19 in 10.0 mi North 18.4 mph 25.3 mph N/A   Overcast
10:53 PM 35.1 °F 24.5 °F -0.0 °F 23% 30.17 in 10.0 mi NNW 18.4 mph 26.5 mph N/A   Mostly Cloudy
11:53 PM 34.0 °F 21.8 °F -0.0 °F 24% 30.15 in 10.0 mi NNW 23.0 mph 31.1 mph N/A   Overcast